N2RFA-13 Weather Reports


time (UTC)temp
C
wind
direction
speed
KPH
gust
KPH
rain 1hr
cm
rain 24hr
cm
rain mn
cm
humidity
%
barometer
mb
20260504044510 3 198 0.0 0.0 0.00 0.00 0.00 79 1014.3
20260504043007 3 198 0.0 0.0 0.00 0.00 0.00 79 1014.2
20260504041505 3 198 0.0 0.0 0.00 0.00 0.00 77 1013.9
20260504040006 3 198 0.0 0.0 0.00 0.00 0.00 77 1013.8
20260504034500 3 198 0.0 0.0 0.00 0.00 0.00 76 1013.9
20260504033102 4 198 0.0 0.0 0.00 0.00 0.00 75 1013.8
20260504031559 4 198 0.0 0.0 0.00 0.00 0.00 73 1013.9
20260504030055 5 198 0.0 0.0 0.00 0.00 0.00 73 1013.7
20260504024554 5 198 0.0 0.0 0.00 0.00 0.00 71 1013.8
20260504023100 5 198 0.0 0.0 0.00 0.00 0.00 70 1013.8
20260504021552 6 198 0.0 0.0 0.00 0.00 0.00 68 1013.9
20260504020051 6 198 0.0 0.0 0.00 0.00 0.00 67 1013.9
20260504014600 6 198 0.0 0.0 0.00 0.00 0.00 64 1013.7
20260504013049 7 198 0.0 0.0 0.00 0.00 0.00 62 1013.6
20260504011548 7 198 0.0 0.0 0.00 0.00 0.00 61 1013.5
20260504010053 8 198 0.0 0.0 0.00 0.00 0.00 59 1013.3
20260504004551 9 198 0.0 0.0 0.00 0.00 0.00 54 1013.1
20260504003055 10 198 0.0 0.0 0.00 0.00 0.00 49 1012.9
20260504001602 11 198 0.0 0.0 0.00 0.00 0.00 46 1012.7
20260504000052 11 194 0.0 0.0 0.00 0.00 0.00 43 1012.5
20260503234546 12 194 0.0 0.0 0.00 0.00 0.00 42 1012.3
20260503233046 12 194 0.0 0.0 0.00 0.00 0.00 40 1012.2
20260503231545 12 194 0.0 3.2 0.00 0.00 0.00 40 1012.1
20260503230047 12 298 0.0 1.6 0.00 0.00 0.00 39 1011.9
20260503224546 13 124 0.0 4.8 0.00 0.00 0.00 38 1011.9
20260503223044 13 194 0.0 3.2 0.00 0.00 0.00 36 1011.8
20260503221551 13 1 0.0 8.0 0.00 0.00 0.00 35 1011.7
20260503220043 13 289 0.0 4.8 0.00 0.00 0.00 35 1011.8
20260503214542 13 131 0.0 1.6 0.00 0.00 0.00 35 1011.7
20260503213044 13 128 0.0 11.3 0.00 0.00 0.00 34 1011.5
20260503211541 13 124 1.6 8.0 0.00 0.00 0.00 33 1011.5
20260503210041 13 127 0.0 4.8 0.00 0.00 0.00 34 1011.6
20260503204542 13 157 1.6 9.7 0.00 0.00 0.00 33 1011.5
20260503203040 13 196 0.0 6.4 0.00 0.00 0.00 35 1011.8
20260503201539 13 135 0.0 8.0 0.00 0.00 0.00 35 1011.8
20260503200038 13 153 0.0 9.7 0.00 0.00 0.00 34 1012.0
20260503194538 13 289 1.6 9.7 0.00 0.00 0.00 35 1012.0
20260503193042 13 134 1.6 14.5 0.00 0.00 0.00 36 1011.9
20260503191536 13 117 0.0 4.8 0.00 0.00 0.00 35 1012.1
20260503190039 13 120 0.0 3.2 0.00 0.00 0.00 36 1012.4
20260503184535 13 316 0.0 6.4 0.00 0.00 0.00 38 1012.3
20260503183038 13 194 0.0 4.8 0.00 0.00 0.00 39 1012.5
20260503181532 13 194 1.6 6.4 0.00 0.00 0.00 38 1012.4
20260503180031 12 357 0.0 8.0 0.00 0.00 0.00 38 1012.4
20260503174532 12 278 0.0 4.8 0.00 0.00 0.00 41 1012.7
20260503173028 12 194 0.0 8.0 0.00 0.00 0.00 38 1012.8
20260503171525 12 125 0.0 4.8 0.00 0.00 0.00 44 1013.0
20260503081536 6 238 0.0 4.8 0.00 0.05 0.00 61 1011.9
20260503071536 6 107 0.0 3.2 0.00 0.05 0.00 61 1011.6
20260503054529 7 194 0.0 3.2 0.00 0.05 0.00 57 1011.9
20260503053018 7 168 0.0 1.6 0.00 0.05 0.00 57 1012.1
20260503051525 7 195 0.0 1.6 0.00 0.05 0.00 56 1012.3
20260503050021 7 194 0.0 1.6 0.00 0.05 0.00 55 1012.4